Weather History for KCBF - October, 2012

Change the Weather History Date:

Sunday, October 7, 2012

  Actual Average Record
Temperature  
Mean Temperature 42 °F -  
Max Temperature 55 °F 68 °F 86 °F (2006)
Min Temperature 28 °F 45 °F 28 °F (2000)
Degree Days  
Heating Degree Days 24    
Moisture  
Dew Point 24 °F    
Average Humidity 52    
Maximum Humidity 86    
Minimum Humidity 26    
Precipitation  
Precipitation 0.00 in - - ()
Sea Level Pressure  
Sea Level Pressure 30.17 in    
Wind  
Wind Speed 7 mph (SW)    
Max Wind Speed 18 mph    
Max Gust Speed 25 mph    
Visibility 10 miles    
Events      
Averages and records for this station are not official NWS values.
T = Trace of Precipitation, MM = Missing Value Source: NWS Daily Summary

Daily Weather History Graph

Daily Weather History Graph

Search for Another Location

Airport or City:

Trip Planner

Search our weather history database for the weather conditions in past years. The results will help you decide how hot, cold, wet, or windy it might be!

Date:

Astronomy

Oct. 07, 2012 Rise Set
Actual Time 7:26 AM CDT 6:54 PM CDT
Civil Twilight 6:59 AM CDT 7:21 PM CDT
Nautical Twilight 6:27 AM CDT 7:53 PM CDT
Astronomical Twilight 5:54 AM CDT 8:25 PM CDT
Moon No Moon Rise 2:06 PM CDT (10/7)
Length of Visible Light 12h 22m
Length of Day
11h 27m
Waning Gibbous, 56% of the Moon is Illuminated
Oct 7
Waning Gibbous
Oct 8
Last Quarter
Oct 15
New
Oct 21
First Quarter
Oct 29
Full

Hourly Weather History & Observations

Time (CDT) Temp. Windchill Dew Point Humidity Pressure Visibility Wind Dir Wind Speed Gust Speed Precip Events Conditions
12:15 AM 35.6 °F 30.7 °F 23.0 °F 60% 30.29 in 10.0 mi WNW 5.8 mph - N/A   Clear
12:35 AM 35.6 °F 30.7 °F 23.0 °F 60% 30.29 in 10.0 mi WNW 5.8 mph - N/A   Clear
12:55 AM 35.6 °F 30.7 °F 23.0 °F 60% 30.29 in 10.0 mi WNW 5.8 mph - N/A   Clear
1:15 AM 35.6 °F 31.7 °F 23.0 °F 60% 30.28 in 10.0 mi WNW 4.6 mph - N/A   Clear
1:35 AM 35.6 °F 31.7 °F 23.0 °F 60% 30.28 in 10.0 mi WNW 4.6 mph - N/A   Clear
1:55 AM 33.8 °F - 23.0 °F 65% 30.29 in 10.0 mi Calm Calm - N/A   Clear
2:15 AM 33.8 °F - 23.0 °F 65% 30.29 in 10.0 mi Calm Calm - N/A   Clear
2:35 AM 33.8 °F 29.6 °F 23.0 °F 65% 30.28 in 10.0 mi West 4.6 mph - N/A   Clear
2:55 AM 32.0 °F 27.5 °F 23.0 °F 69% 30.28 in 10.0 mi SW 4.6 mph - N/A   Clear
3:15 AM 32.0 °F 26.4 °F 23.0 °F 69% 30.27 in 10.0 mi SW 5.8 mph - N/A   Clear
3:35 AM 30.2 °F 26.7 °F 23.0 °F 75% 30.27 in 10.0 mi West 3.5 mph - N/A   Clear
3:55 AM 32.0 °F 27.5 °F 23.0 °F 69% 30.26 in 10.0 mi West 4.6 mph - N/A   Clear
4:15 AM 30.2 °F 26.7 °F 23.0 °F 75% 30.25 in 10.0 mi West 3.5 mph - N/A   Clear
4:35 AM 30.2 °F 25.4 °F 23.0 °F 75% 30.26 in 10.0 mi WSW 4.6 mph - N/A   Clear
4:55 AM 32.0 °F 27.5 °F 23.0 °F 69% 30.25 in 10.0 mi WSW 4.6 mph - N/A   Clear
5:15 AM 30.2 °F 25.4 °F 23.0 °F 75% 30.26 in 10.0 mi West 4.6 mph - N/A   Clear
5:35 AM 30.2 °F 26.7 °F 23.0 °F 75% 30.25 in 10.0 mi SSW 3.5 mph - N/A   Clear
5:55 AM 28.4 °F 24.6 °F 23.0 °F 80% 30.25 in 10.0 mi SSW 3.5 mph - N/A   Clear
6:15 AM 28.4 °F 23.3 °F 24.8 °F 86% 30.25 in 10.0 mi SW 4.6 mph - N/A   Clear
6:35 AM 28.4 °F - 23.0 °F 80% 30.25 in 10.0 mi Calm Calm - N/A   Clear
6:55 AM 28.4 °F 23.3 °F 24.8 °F 86% 30.25 in 10.0 mi SW 4.6 mph - N/A   Clear
7:15 AM 28.4 °F 22.2 °F 23.0 °F 80% 30.25 in 10.0 mi SW 5.8 mph - N/A   Clear
7:35 AM 28.4 °F 23.3 °F 23.0 °F 80% 30.25 in 10.0 mi SW 4.6 mph - N/A   Clear
7:55 AM 28.4 °F 22.2 °F 24.8 °F 86% 30.26 in 10.0 mi SW 5.8 mph - N/A   Clear
8:15 AM 30.2 °F 25.4 °F 24.8 °F 80% 30.26 in 10.0 mi SW 4.6 mph - N/A   Clear
8:35 AM 32.0 °F 26.4 °F 26.6 °F 80% 30.26 in 10.0 mi SW 5.8 mph - N/A   Clear
8:55 AM 32.0 °F 26.4 °F 26.6 °F 80% 30.26 in 10.0 mi SW 5.8 mph - N/A   Clear
9:15 AM 33.8 °F 28.6 °F 26.6 °F 75% 30.26 in 10.0 mi SW 5.8 mph - N/A   Clear
9:35 AM 35.6 °F 29.9 °F 26.6 °F 70% 30.27 in 10.0 mi SW 6.9 mph - N/A   Clear
9:55 AM 37.4 °F 32.1 °F 26.6 °F 65% 30.26 in 10.0 mi SW 6.9 mph - N/A   Clear
10:15 AM 41.0 °F 37.1 °F 26.6 °F 57% 30.26 in 10.0 mi West 5.8 mph - N/A   Clear
10:35 AM 42.8 °F 38.0 °F 24.8 °F 49% 30.25 in 10.0 mi SW 8.1 mph - N/A   Unknown
10:55 AM 44.6 °F 39.7 °F 24.8 °F 46% 30.24 in 10.0 mi WSW 9.2 mph - N/A   Unknown
11:15 AM 44.6 °F 39.7 °F 24.8 °F 46% 30.23 in 10.0 mi SW 9.2 mph - N/A   Unknown
11:35 AM 46.4 °F 42.4 °F 24.8 °F 43% 30.23 in 10.0 mi SW 8.1 mph - N/A   Unknown
11:55 AM 48.2 °F - 23.0 °F 37% 30.21 in 10.0 mi SW 10.4 mph 17.3 mph N/A   Unknown
12:15 PM 50.0 °F - 23.0 °F 35% 30.21 in 10.0 mi SSW 6.9 mph 12.7 mph N/A   Unknown
12:35 PM 50.0 °F - 23.0 °F 35% 30.20 in 10.0 mi WSW 11.5 mph 18.4 mph N/A   Clear
12:55 PM 51.8 °F - 23.0 °F 33% 30.19 in 10.0 mi SW 11.5 mph 20.7 mph N/A   Clear
1:15 PM 51.8 °F - 23.0 °F 33% 30.17 in 10.0 mi WSW 15.0 mph 21.9 mph N/A   Clear
1:35 PM 51.8 °F - 23.0 °F 33% 30.16 in 10.0 mi WSW 10.4 mph 21.9 mph N/A   Clear
1:55 PM 53.6 °F - 24.8 °F 33% 30.15 in 10.0 mi WSW 9.2 mph 18.4 mph N/A   Partly Cloudy
2:15 PM 53.6 °F - 24.8 °F 33% 30.13 in 10.0 mi West 17.3 mph 25.3 mph N/A   Partly Cloudy
2:35 PM 55.4 °F - 23.0 °F 29% 30.12 in 10.0 mi WSW 11.5 mph 23.0 mph N/A   Partly Cloudy
2:55 PM 55.4 °F - 23.0 °F 29% 30.11 in 10.0 mi WSW 16.1 mph - N/A   Clear
3:15 PM 55.4 °F - 23.0 °F 29% 30.10 in 10.0 mi SW 16.1 mph - N/A   Clear
3:35 PM 55.4 °F - 23.0 °F 29% 30.09 in 10.0 mi WSW 13.8 mph 23.0 mph N/A   Clear
3:55 PM 55.4 °F - 23.0 °F 29% 30.08 in 10.0 mi WSW 12.7 mph 18.4 mph N/A   Clear
4:15 PM 55.4 °F - 23.0 °F 29% 30.07 in 10.0 mi WSW 15.0 mph 23.0 mph N/A   Clear
4:35 PM 55.4 °F - 21.2 °F 26% 30.07 in 10.0 mi WSW 15.0 mph 24.2 mph N/A   Clear
4:55 PM 55.4 °F - 21.2 °F 26% 30.06 in 9.0 mi SW 18.4 mph - N/A   Clear
5:15 PM 55.4 °F - 23.0 °F 29% 30.05 in 10.0 mi WSW 13.8 mph - N/A   Clear
5:35 PM 55.4 °F - 21.2 °F 26% 30.05 in 10.0 mi SW 11.5 mph 23.0 mph N/A   Clear
5:55 PM 55.4 °F - 21.2 °F 26% 30.05 in 10.0 mi WSW 17.3 mph 23.0 mph N/A   Clear
6:15 PM 53.6 °F - 21.2 °F 28% 30.05 in 10.0 mi WSW 15.0 mph - N/A   Clear
6:35 PM 53.6 °F - 23.0 °F 30% 30.04 in 10.0 mi SW 10.4 mph - N/A   Clear
6:55 PM 51.8 °F - 23.0 °F 33% 30.04 in 10.0 mi SW 8.1 mph - N/A   Clear
7:15 PM 51.8 °F - 24.8 °F 35% 30.05 in 10.0 mi SW 12.7 mph - N/A   Clear
7:35 PM 50.0 °F - 24.8 °F 37% 30.05 in 10.0 mi SW 8.1 mph - N/A   Mostly Cloudy
7:55 PM 48.2 °F - 24.8 °F 40% 30.05 in 10.0 mi SW 6.9 mph - N/A   Scattered Clouds
8:15 PM 48.2 °F - 24.8 °F 40% 30.05 in 10.0 mi SSW 8.1 mph - N/A   Clear
8:35 PM 48.2 °F - 24.8 °F 40% 30.05 in 10.0 mi SSW 9.2 mph - N/A   Clear
8:55 PM 46.4 °F 41.5 °F 24.8 °F 43% 30.05 in 10.0 mi SSW 10.4 mph - N/A   Clear
9:15 PM 46.4 °F 41.5 °F 24.8 °F 43% 30.05 in 10.0 mi SSW 10.4 mph - N/A   Clear
9:35 PM 46.4 °F 40.7 °F 24.8 °F 43% 30.04 in 10.0 mi SSW 12.7 mph - N/A   Clear
9:55 PM 46.4 °F 40.4 °F 26.6 °F 46% 30.04 in 10.0 mi SSW 13.8 mph 20.7 mph N/A   Clear
10:15 PM 46.4 °F 40.4 °F 26.6 °F 46% 30.03 in 10.0 mi SSW 13.8 mph 19.6 mph N/A   Clear
10:35 PM 46.4 °F 39.8 °F 26.6 °F 46% 30.03 in 10.0 mi SSW 16.1 mph - N/A   Clear
10:55 PM 46.4 °F 40.1 °F 26.6 °F 46% 30.03 in 10.0 mi SSW 15.0 mph - N/A   Clear
11:15 PM 44.6 °F 38.1 °F 26.6 °F 49% 30.03 in 10.0 mi SSW 13.8 mph - N/A   Clear
11:35 PM 44.6 °F 38.1 °F 26.6 °F 49% 30.02 in 10.0 mi SSW 13.8 mph 19.6 mph N/A   Clear
11:55 PM 42.8 °F 35.4 °F 28.4 °F 57% 30.02 in 10.0 mi SW 15.0 mph - N/A   Clear